Estación de Calama Rural INIA
Ultimos registro cada 15 minutos 79
| N° | Estación | Fecha / Hora | Temperatura | Humedad | Lluvia | Velocidad | Dirección | Radiación | Presion |
| 79 | Calama Rural INIA | 01-09-2026 19:30 | 15,3 | 12,5 | 0 | 0,1 | 255 | 7,8 | 781,3 |
| 78 | Calama Rural INIA | 01-09-2026 19:15 | 16,2 | 11,9 | 0 | 0,4 | 253 | 8,2 | 781,1 |
| 77 | Calama Rural INIA | 01-09-2026 19:00 | 17,4 | 11,3 | 0 | 1,8 | 243 | 8 | 781 |
| 76 | Calama Rural INIA | 01-09-2026 18:45 | 18,4 | 11,2 | 0 | 3 | 240 | 8,5 | 780,8 |
| 75 | Calama Rural INIA | 01-09-2026 18:30 | 18,8 | 6,8 | 0 | 0,4 | 246 | 12,3 | 780,8 |
| 74 | Calama Rural INIA | 01-09-2026 18:15 | 20,1 | 6,2 | 0 | 1,4 | 243 | 17,1 | 780,8 |
| 73 | Calama Rural INIA | 01-09-2026 18:00 | 21,1 | 5,7 | 0 | 2,4 | 237 | 20,6 | 780,7 |
| 72 | Calama Rural INIA | 01-09-2026 17:45 | 21,6 | 5,3 | 0 | 2,7 | 241 | 24,9 | 780,6 |
| 71 | Calama Rural INIA | 01-09-2026 17:30 | 22,2 | 5,5 | 0 | 2,9 | 237 | 34,7 | 780,4 |
| 70 | Calama Rural INIA | 01-09-2026 17:15 | 23,5 | 5,3 | 0 | 3,3 | 238 | 102,5 | 780,4 |
| 69 | Calama Rural INIA | 01-09-2026 17:00 | 24 | 5,9 | 0 | 2,8 | 238 | 174,8 | 780,3 |
| 68 | Calama Rural INIA | 01-09-2026 16:45 | 24,2 | 5,3 | 0 | 3,3 | 242 | 304,3 | 780,2 |
| 67 | Calama Rural INIA | 01-09-2026 16:30 | 24,6 | 6,3 | 0 | 3,2 | 240 | 350,6 | 780,1 |
| 66 | Calama Rural INIA | 01-09-2026 16:15 | 24,8 | 6,2 | 0 | 3,3 | 240 | 396,3 | 780,1 |
| 65 | Calama Rural INIA | 01-09-2026 16:00 | 24,9 | 5,2 | 0 | 3,3 | 243 | 439,5 | 780,1 |
| 64 | Calama Rural INIA | 01-09-2026 15:45 | 25 | 6,4 | 0 | 3,6 | 240 | 480,9 | 780,1 |
| 63 | Calama Rural INIA | 01-09-2026 15:30 | 25 | 5,4 | 0 | 3,1 | 236 | 521,1 | 780,3 |
| 62 | Calama Rural INIA | 01-09-2026 15:15 | 25,3 | 6,9 | 0 | 2,9 | 236 | 555,9 | 780,3 |
| 61 | Calama Rural INIA | 01-09-2026 15:00 | 25,2 | 6,2 | 0 | 2,8 | 241 | 589 | 780,3 |
| 60 | Calama Rural INIA | 01-09-2026 14:45 | 25,2 | 6,9 | 0 | 2,9 | 229 | 620 | 780,5 |
| 59 | Calama Rural INIA | 01-09-2026 14:30 | 25,3 | 5,6 | 0 | 2,6 | 232 | 646,6 | 780,5 |
| 58 | Calama Rural INIA | 01-09-2026 14:15 | 25,3 | 5,7 | 0 | 2,6 | 240 | 670 | 780,7 |
| 57 | Calama Rural INIA | 01-09-2026 14:00 | 25,4 | 8,3 | 0 | 2,3 | 235 | 690,9 | 780,8 |
| 56 | Calama Rural INIA | 01-09-2026 13:45 | 25,5 | 5,7 | 0 | 1,8 | 241 | 707 | 780,9 |
| 55 | Calama Rural INIA | 01-09-2026 13:30 | 25,9 | 6,5 | 0 | 1,4 | 246 | 722,3 | 781,1 |
| 54 | Calama Rural INIA | 01-09-2026 13:15 | 25,8 | 4,7 | 0 | 1,8 | 238 | 730,8 | 781,2 |
| 53 | Calama Rural INIA | 01-09-2026 13:00 | 26,4 | 7,8 | 0 | 0,4 | 239 | 738 | 781,5 |
| 52 | Calama Rural INIA | 01-09-2026 12:45 | 27,6 | 4,9 | 0 | 0 | 0 | 743,1 | 781,6 |
| 51 | Calama Rural INIA | 01-09-2026 12:30 | 26,4 | 5,8 | 0 | 0 | 0 | 741,5 | 781,8 |
| 50 | Calama Rural INIA | 01-09-2026 12:15 | 25,6 | 5,3 | 0 | 0 | 0 | 739,3 | 782 |
| 49 | Calama Rural INIA | 01-09-2026 12:00 | 24,7 | 5,9 | 0 | 0,1 | 71 | 734,4 | 782 |
| 48 | Calama Rural INIA | 01-09-2026 11:45 | 25 | 6,4 | 0 | 0,2 | 61 | 726,6 | 782,3 |
| 47 | Calama Rural INIA | 01-09-2026 11:30 | 23,5 | 5,1 | 0 | 0,2 | 74 | 710,8 | 782,5 |
| 46 | Calama Rural INIA | 01-09-2026 11:15 | 23,5 | 6,7 | 0 | 0,4 | 70 | 691,8 | 782,8 |
| 45 | Calama Rural INIA | 01-09-2026 11:00 | 21,5 | 9 | 0 | 1,2 | 64 | 669,2 | 782,9 |
| 44 | Calama Rural INIA | 01-09-2026 10:45 | 20,6 | 8,6 | 0 | 1,3 | 67 | 642,9 | 782,9 |
| 43 | Calama Rural INIA | 01-09-2026 10:30 | 19,8 | 7,9 | 0 | 2,1 | 71 | 614,7 | 783 |
| 42 | Calama Rural INIA | 01-09-2026 10:15 | 18,8 | 8,9 | 0 | 2,6 | 71 | 583,8 | 783,1 |
| 41 | Calama Rural INIA | 01-09-2026 10:00 | 17,3 | 9,8 | 0 | 2,7 | 71 | 548,5 | 783,1 |
| 40 | Calama Rural INIA | 01-09-2026 09:45 | 15,9 | 11,3 | 0 | 3,1 | 66 | 511,4 | 783,1 |
| 39 | Calama Rural INIA | 01-09-2026 09:30 | 14,8 | 9,9 | 0 | 3 | 70 | 472,1 | 783,3 |
| 38 | Calama Rural INIA | 01-09-2026 09:15 | 13,6 | 11,6 | 0 | 3,4 | 72 | 430,7 | 783,4 |
| 37 | Calama Rural INIA | 01-09-2026 09:00 | 12,7 | 11,3 | 0 | 3,5 | 69 | 387,1 | 783,2 |
| 36 | Calama Rural INIA | 01-09-2026 08:45 | 11,2 | 11,7 | 0 | 3,4 | 62 | 341,5 | 783,2 |
| 35 | Calama Rural INIA | 01-09-2026 08:30 | 9,8 | 13,1 | 0 | 3,8 | 66 | 294,6 | 783 |
| 34 | Calama Rural INIA | 01-09-2026 08:15 | 9,2 | 12,9 | 0 | 3,9 | 67 | 248 | 782,9 |
| 33 | Calama Rural INIA | 01-09-2026 08:00 | 8,9 | 13,1 | 0 | 3,6 | 59 | 202,4 | 783 |
| 32 | Calama Rural INIA | 01-09-2026 07:45 | 8,6 | 12,6 | 0 | 3,8 | 59 | 157,5 | 782,8 |
| 31 | Calama Rural INIA | 01-09-2026 07:30 | 8,1 | 12,6 | 0 | 3,1 | 53 | 110,9 | 782,8 |
| 30 | Calama Rural INIA | 01-09-2026 07:15 | 7 | 13,5 | 0 | 2,6 | 51 | 56 | 782,9 |
| 29 | Calama Rural INIA | 01-09-2026 07:00 | 5,5 | 15,4 | 0 | 2,4 | 56 | 15,8 | 782,8 |
| 28 | Calama Rural INIA | 01-09-2026 06:45 | 5,5 | 16,5 | 0 | 2,5 | 56 | 9,1 | 782,8 |
| 27 | Calama Rural INIA | 01-09-2026 06:30 | 5,9 | 16,4 | 0 | 1,6 | 56 | 9,2 | 782,6 |
| 26 | Calama Rural INIA | 01-09-2026 06:15 | 5,3 | 16,6 | 0 | 1,6 | 64 | 8,2 | 782,6 |
| 25 | Calama Rural INIA | 01-09-2026 06:00 | 4,3 | 17,8 | 0 | 1,8 | 68 | 8,4 | 782,6 |
| 24 | Calama Rural INIA | 01-09-2026 05:45 | 4,1 | 20,4 | 0 | 3,2 | 68 | 8 | 782,6 |
| 23 | Calama Rural INIA | 01-09-2026 05:30 | 4,7 | 19,7 | 0 | 3,1 | 77 | 8,3 | 782,5 |
| 22 | Calama Rural INIA | 01-09-2026 05:15 | 5,1 | 18,4 | 0 | 2,6 | 66 | 8 | 782,6 |
| 21 | Calama Rural INIA | 01-09-2026 05:00 | 5 | 18 | 0 | 3 | 67 | 7,9 | 782,6 |
| 20 | Calama Rural INIA | 01-09-2026 04:45 | 5,8 | 18,7 | 0 | 2,7 | 67 | 8,1 | 782,6 |
| 19 | Calama Rural INIA | 01-09-2026 04:30 | 5,3 | 18,8 | 0 | 2,7 | 64 | 8,3 | 782,8 |
| 18 | Calama Rural INIA | 01-09-2026 04:15 | 5,8 | 19,6 | 0 | 2,4 | 63 | 8 | 782,8 |
| 17 | Calama Rural INIA | 01-09-2026 04:00 | 6,7 | 17,6 | 0 | 2,9 | 66 | 8,2 | 783 |
| 16 | Calama Rural INIA | 01-09-2026 03:45 | 6,9 | 18,5 | 0 | 1,7 | 55 | 7,9 | 783 |
| 15 | Calama Rural INIA | 01-09-2026 03:30 | 7,2 | 18 | 0 | 2 | 55 | 7,9 | 783 |
| 14 | Calama Rural INIA | 01-09-2026 03:15 | 7,1 | 17,2 | 0 | 1,1 | 53 | 8 | 783 |
| 13 | Calama Rural INIA | 01-09-2026 03:00 | 5,9 | 18,3 | 0 | 0,3 | 56 | 8,2 | 783 |
| 12 | Calama Rural INIA | 01-09-2026 02:45 | 6,2 | 18,6 | 0 | 0,5 | 53 | 9 | 783,1 |
| 11 | Calama Rural INIA | 01-09-2026 02:30 | 6,2 | 19,6 | 0 | 0,1 | 36 | 8,1 | 783,4 |
| 10 | Calama Rural INIA | 01-09-2026 02:15 | 7 | 19,4 | 0 | 0,3 | 48 | 8,1 | 783,3 |
| 9 | Calama Rural INIA | 01-09-2026 02:00 | 7,5 | 18,8 | 0 | 0,9 | 53 | 8,3 | 783,4 |
| 8 | Calama Rural INIA | 01-09-2026 01:45 | 7,3 | 20 | 0 | 0,6 | 49 | 8,3 | 783,3 |
| 7 | Calama Rural INIA | 01-09-2026 01:30 | 7,1 | 19,5 | 0 | 0,3 | 54 | 8,5 | 783,5 |
| 6 | Calama Rural INIA | 01-09-2026 01:15 | 7,2 | 17,4 | 0 | 0,5 | 55 | 8,7 | 783,6 |
| 5 | Calama Rural INIA | 01-09-2026 01:00 | 7,2 | 17,4 | 0 | 0,4 | 56 | 8,9 | 783,7 |
| 4 | Calama Rural INIA | 01-09-2026 00:45 | 7,5 | 18,2 | 0 | 0,2 | 49 | 9,1 | 783,7 |
| 3 | Calama Rural INIA | 01-09-2026 00:30 | 8 | 16,5 | 0 | 0,9 | 54 | 9,2 | 783,8 |
| 2 | Calama Rural INIA | 01-09-2026 00:15 | 8,4 | 16 | 0 | 1,1 | 57 | 9,5 | 783,8 |
| 1 | Calama Rural INIA | 01-09-2026 00:00 | 8,9 | 16 | 0 | 0,8 | 55 | 9,7 | 783,8 |